User: anonymous   Login
Location: Unspecified
(0.0000°N, 0.0000°E)
Time: 11:04:07
(UTC+00:00)
Language:

FO-29 - Orbit

View from above orbital plane
View from above orbital plane
View from above satellite
View from above satellite

Ground track
Ground track

The orbit data is extracted from the following two-line orbital elements,

1 24278U 96046B   19348.79123652 -.00000056  00000-0 -23369-4 0  9998
2 24278  98.5634 118.1463 0351008 135.6688 227.3137 13.53095061152026
Epoch (UTC): 14 December 2019 18:59:22
Eccentricity: 0.0351008
inclination: 98.5634°
perigee height: 800 km
apogee height: 1322 km
right ascension of ascending node: 118.1463°
argument of perigee: 135.6688°
revolutions per day: 13.53095061
mean anomaly at epoch: 227.3137°
orbit number at epoch: 15202

The dashed part of the orbit path shows where the satellite is in the earth's shadow,  

DLR